Date String (YYYY-MM-DD hh:mm:ss) UTC,Instrument flags,Ambient pressure (hPa),Sample flow (lpm),Bypass flow (lpm),Sample temperature (°C),Ambient temperature (°C),ASC tube jacket temperature (°C),LED temperature (°C),Box temperature (°C),Sample RH (%),Span deviation,Mass concentration (μg/m³),Mass concentration (μg/m³),Mass concentration (μg/m³)
DateTimeUTC,F1_M11,P_M11,Q1_M11,Q2_M11,T1_M11,T2_M11,T3_M11,T4_M11,T5_M11,U1_M11,ZSPAN_M11,X2_M11,X0_M11,X1_M11
2023-05-01 05:00:00,,0829.7,5.00,0.00,29.8,28.3,00.0,38.2,31.3,12.1,0000.0,0004.65,0012.07,0003.16
2023-05-01 05:01:00,,0829.7,5.00,0.00,29.8,28.3,00.0,38.2,31.3,12.0,0000.0,0004.63,0011.74,0003.15
2023-05-01 05:02:00,,0829.7,5.01,0.00,29.8,28.3,00.0,38.2,31.2,12.1,0000.0,0004.58,0011.99,0003.13
2023-05-01 05:03:00,,0829.6,5.00,0.00,29.8,28.2,00.0,38.2,31.2,12.2,0000.0,0004.55,0012.91,0003.11
2023-05-01 05:04:00,,0829.7,4.99,0.00,29.8,28.2,00.0,38.2,31.2,12.2,0000.0,0004.48,0013.20,0003.08
2023-05-01 05:05:00,,0829.7,4.99,0.00,29.8,28.2,00.0,38.2,31.2,12.2,0000.0,0004.44,0012.17,0003.05
2023-05-01 05:06:00,,0829.7,4.99,0.00,29.7,28.2,00.0,38.2,31.2,12.3,0000.0,0004.37,0011.71,0003.02
2023-05-01 05:07:00,,0829.7,5.00,0.00,29.7,28.2,00.0,38.2,31.2,12.3,0000.0,0004.38,0011.61,0003.01
2023-05-01 05:08:00,,0829.7,5.01,0.00,29.7,28.2,00.0,38.2,31.2,12.3,0000.0,0004.35,0011.59,0002.97
2023-05-01 05:09:00,,0829.7,4.99,0.00,29.8,28.2,00.0,38.2,31.2,12.2,0000.0,0004.33,0011.55,0002.96
2023-05-01 05:10:00,,0829.6,5.00,0.00,29.7,28.2,00.0,38.2,31.3,12.2,0000.0,0004.37,0011.92,0002.95
2023-05-01 05:11:00,,0829.6,5.00,0.00,29.8,28.2,00.0,38.2,31.3,12.3,0000.0,0004.40,0012.81,0002.93
2023-05-01 05:12:00,,0829.6,5.00,0.00,29.8,28.2,00.0,38.2,31.3,12.3,0000.0,0004.40,0012.84,0002.93
2023-05-01 05:13:00,,0829.6,5.00,0.00,29.8,28.2,00.0,38.2,31.3,12.2,0000.0,0004.38,0013.12,0002.93
2023-05-01 05:14:00,,0829.6,5.01,0.00,29.8,28.2,00.0,38.2,31.3,12.3,0000.0,0004.42,0012.62,0002.94
2023-05-01 05:15:00,,0829.6,5.00,0.00,29.8,28.3,00.0,38.2,31.3,12.3,0000.0,0004.45,0012.60,0002.96
2023-05-01 05:16:00,,0829.6,5.00,0.00,29.8,28.3,00.0,38.2,31.3,12.3,0000.0,0004.51,0013.19,0002.98
2023-05-01 05:17:00,,0829.6,5.00,0.00,29.8,28.2,00.0,38.2,31.3,12.4,0000.0,0004.51,0012.89,0002.99
2023-05-01 05:18:00,,0829.6,5.01,0.00,29.8,28.2,00.0,38.2,31.3,12.4,0000.0,0004.50,0012.84,0002.99
2023-05-01 05:19:00,,0829.6,5.00,0.00,29.8,28.2,00.0,38.2,31.3,12.4,0000.0,0004.51,0012.83,0002.99
2023-05-01 05:20:00,,0829.6,5.00,0.00,29.7,28.1,00.0,38.2,31.2,12.5,0000.0,0004.50,0012.80,0003.00
2023-05-01 05:21:00,,0829.6,5.00,0.00,29.7,28.1,00.0,38.2,31.2,12.5,0000.0,0004.47,0012.31,0003.00
2023-05-01 05:22:00,,0829.6,5.00,0.00,29.7,28.1,00.0,38.2,31.1,12.5,0000.0,0004.45,0011.39,0003.00
2023-05-01 05:23:00,,0829.5,4.99,0.00,29.7,28.0,00.0,38.2,31.1,12.5,0000.0,0004.44,0011.25,0003.02
2023-05-01 05:24:00,,0829.5,5.00,0.00,29.7,28.0,00.0,38.2,31.0,12.5,0000.0,0004.41,0010.85,0003.03
2023-05-01 05:25:00,,0829.5,5.00,0.00,29.6,28.0,00.0,38.1,31.1,12.5,0000.0,0004.39,0010.98,0003.03
2023-05-01 05:26:00,,0829.4,5.00,0.00,29.6,28.0,00.0,38.1,31.1,12.6,0000.0,0004.37,0010.71,0003.02
2023-05-01 05:27:00,,0829.4,5.00,0.00,29.6,27.9,00.0,38.1,31.1,12.6,0000.0,0004.29,0010.73,0003.01
2023-05-01 05:28:00,,0829.4,5.00,0.00,29.6,27.9,00.0,38.1,31.1,12.6,0000.0,0004.24,0011.06,0003.00
2023-05-01 05:29:00,,0829.3,5.01,0.00,29.6,27.9,00.0,38.1,31.1,12.6,0000.0,0004.22,0012.67,0003.00
2023-05-01 05:30:00,,0829.3,5.01,0.00,29.6,27.8,00.0,38.1,31.0,12.7,0000.0,0004.25,0012.73,0003.00
2023-05-01 05:31:00,,0829.4,5.00,0.00,29.5,27.8,00.0,38.1,30.9,12.7,0000.0,0004.26,0013.16,0003.02
2023-05-01 05:32:00,,0829.3,4.98,0.00,29.5,27.7,00.0,38.1,30.9,12.8,0000.0,0004.27,0013.84,0003.04
2023-05-01 05:33:00,,0829.4,5.01,0.00,29.5,27.7,00.0,38.1,30.9,12.8,0000.0,0004.31,0014.63,0003.06
2023-05-01 05:34:00,,0829.3,5.01,0.00,29.4,27.6,00.0,38.0,30.9,12.9,0000.0,0004.33,0015.33,0003.07
2023-05-01 05:35:00,,0829.4,4.99,0.00,29.4,27.6,00.0,38.0,30.8,12.7,0000.0,0004.38,0015.16,0003.07
2023-05-01 05:36:00,,0829.4,4.99,0.00,29.4,27.6,00.0,38.0,30.8,12.9,0000.0,0004.42,0014.83,0003.08
2023-05-01 05:37:00,,0829.4,5.00,0.00,29.4,27.6,00.0,38.0,30.8,13.2,0000.0,0004.43,0014.98,0003.10
2023-05-01 05:38:00,,0829.4,5.01,0.00,29.4,27.6,00.0,38.0,30.8,12.9,0000.0,0004.40,0013.91,0003.10
2023-05-01 05:39:00,,0829.3,5.01,0.00,29.4,27.6,00.0,37.9,30.8,13.0,0000.0,0004.41,0013.92,0003.10
2023-05-01 05:40:00,,0829.3,5.01,0.00,29.4,27.6,00.0,37.9,30.9,13.1,0000.0,0004.42,0012.03,0003.10
2023-05-01 05:41:00,,0829.3,5.00,0.00,29.4,27.7,00.0,37.9,30.9,12.8,0000.0,0004.40,0012.00,0003.11
2023-05-01 05:42:00,,0829.3,5.00,0.00,29.4,27.8,00.0,37.9,30.9,12.5,0000.0,0004.41,0012.15,0003.11
2023-05-01 05:43:00,,0829.3,5.00,0.00,29.4,27.8,00.0,37.9,30.9,12.8,0000.0,0004.37,0011.99,0003.10
2023-05-01 05:44:00,,0829.4,5.00,0.00,29.4,27.9,00.0,37.9,31.0,12.8,0000.0,0004.39,0011.57,0003.10
2023-05-01 05:45:00,,0829.4,4.99,0.00,29.5,27.9,00.0,37.9,31.0,13.1,0000.0,0004.45,0011.49,0003.10
2023-05-01 05:46:00,,0829.4,5.00,0.00,29.4,27.9,00.0,37.9,30.9,13.3,0000.0,0004.45,0011.34,0003.11
2023-05-01 05:47:00,,0829.3,5.00,0.00,29.4,27.8,00.0,37.9,30.9,13.3,0000.0,0004.44,0011.81,0003.12
2023-05-01 05:48:00,,0829.3,4.99,0.00,29.4,27.8,00.0,37.9,30.8,13.4,0000.0,0004.45,0012.96,0003.12
2023-05-01 05:49:00,,0829.3,5.01,0.00,29.4,27.8,00.0,37.9,30.8,13.6,0000.0,0004.61,0013.41,0003.15
2023-05-01 05:50:00,,0829.2,5.00,0.00,29.3,27.7,00.0,37.9,30.8,13.4,0000.0,0004.69,0013.59,0003.17
2023-05-01 05:51:00,,0829.3,5.00,0.00,29.3,27.6,00.0,37.9,30.7,13.5,0000.0,0004.71,0014.16,0003.20
2023-05-01 05:52:00,,0829.1,5.00,0.00,29.2,27.4,00.0,37.8,30.6,13.8,0000.0,0004.72,0014.09,0003.23
2023-05-01 05:53:00,,0829.1,5.00,0.00,29.2,27.3,00.0,37.8,30.6,13.8,0000.0,0004.71,0013.72,0003.24
2023-05-01 05:54:00,,0829.2,4.99,0.00,29.1,27.2,00.0,37.8,30.5,13.7,0000.0,0004.72,0013.23,0003.26
2023-05-01 05:55:00,,0829.1,5.00,0.00,29.1,27.1,00.0,37.8,30.5,13.4,0000.0,0004.74,0013.32,0003.28
2023-05-01 05:56:00,,0829.1,5.02,0.00,29.1,27.0,00.0,37.7,30.4,13.4,0000.0,0004.73,0014.46,0003.29
2023-05-01 05:57:00,,0829.1,4.99,0.00,29.0,27.0,00.0,37.7,30.4,13.4,0000.0,0004.74,0014.43,0003.29
2023-05-01 05:58:00,,0829.1,4.99,0.00,29.0,26.9,00.0,37.7,30.4,13.4,0000.0,0004.78,0014.53,0003.30
2023-05-01 05:59:00,,0829.1,5.01,0.00,29.0,26.9,00.0,37.6,30.4,13.6,0000.0,0004.79,0013.50,0003.29
